SCP
3 2 2 1 0 0 0 0 0 0 0 0 0 0 0 0 0 0 0 0 0 0 0 0 0 0 0 0 0 0 0 0 0 0 0 0 0 0
4 3 1 0 0 0 0 0 0 0 0 0 0 0 0 0 0 0 0 0 0 0 0 0 0 0 0 0 0 0 0 0 0 0 0 0 0 0
4 2 0 0 0 0 0 0 0 0 0 0 0 0 0 0 0 0 0 0 0 0 0 0 0 0 0 0 0 0 0 0 0 0 0 0 0 -0
1 0 0 0 0 0 0 0 0 0 0 0 0 0 0 0 0 0 0 0 0 0 0 0 0 0 0 0 0 0 0 0 0 0 0 0 0 -0
0 0 0 0 0 0 0 0 0 0 0 0 0 0 0 0 0 0 0 0 0 0 0 0 0 0 0 0 0 0 0 0 0 0 0 0 0 0
0 0 0 0 0 0 0 0 0 0 0 0 0 0 0 0 0 0 0 0 0 0 0 0 0 0 0 0 0 0 0 0 0 0 0 0 0 0
0 0 0 0 0 0 0 0 0 0 0 0 0 0 0 0 0 0 0 0 0 0 0 0 0 0 0 0 0 0 0 0 0 0 0 0 0 0
0 0 0 0 0 0 0 0 0 0 0 0 0 0 0 0 0 0 0 0 0 0 0 0 0 0 0 0 0 0 0 0 0 0 0 0 0 0
0 0 0 0 0 0 0 0 0 0 0 0 0 0 0 0 0 0 0 0 0 0 0 0 0 0 0 0 0 0 0 0 0 0 0 0 0 0
0 0 0 0 0 0 0 0 0 0 0 0 0 0 0 0 0 0 0 0 0 0 0 0 0 0 0 0 0 0 0 0 0 0 0 0 0 0
0 0 0 0 0 0 0 0 0 0 0 0 0 0 0 0 0 0 0 0 0 0 0 0 0 0 0 0 0 0 0 0 0 0 0 0 0 0
0 0 0 0 0 0 0 0 0 0 0 0 0 0 0 0 0 0 0 0 0 0 0 0 0 0 0 0 0 0 0 0 0 0 0 0 0 0
0 0 0 0 0 0 0 0 0 0 0 0 0 0 0 0 0 0 0 0 0 0 0 0 0 0 0 0 0 0 0 0 0 0 0 0 0 0
0 0 0 0 0 0 0 0 0 0 0 0 0 0 0 0 0 0 0 0 0 0 0 0 0 0 0 0 0 0 0 0 0 0 0 0 0 0
0 0 0 0 0 0 0 0 0 0 0 0 0 0 0 0 0 0 0 0 0 0 0 0 0 0 0 0 0 0 0 0 0 0 0 0 0 0
0 0 0 0 0 0 0 0 0 0 0 0 0 0 0 0 0 0 0 0 0 0 0 0 0 0 0 0 0 0 0 0 0 0 0 0 0 0
0 0 0 0 0 0 0 0 0 0 0 0 0 0 0 0 0 0 0 0 0 0 0 0 0 0 0 0 0 0 0 0 0 0 0 0 0 0
0 0 0 0 0 0 0 0 0 0 0 0 0 0 0 0 0 0 0 0 0 0 0 0 0 0 0 0 0 0 0 0 0 0 0 0 -0 -0
0 0 0 0 0 0 0 0 0 0 0 0 0 0 0 0 0 0 0 0 0 0 0 0 0 0 0 0 0 0 0 0 0 0 0 -0 0 -0
0 0 0 0 0 0 0 0 0 0 0 0 0 0 0 0 0 0 0 0 0 0 0 0 0 0 0 0 0 0 0 0 0 0 -0 0 0 -0
0 0 0 0 0 0 0 0 0 0 0 0 0 0 0 0 0 0 0 0 0 0 0 0 0 0 0 0 0 0 0 0 0 0 0 0 0 0
0 0 0 0 0 0 0 0 0 0 0 0 0 0 0 0 0 0 0 0 0 0 0 0 0 0 0 0 0 0 0 0 -0 -0 0 0 -0 0
0 0 0 0 0 0 0 0 0 0 0 0 0 0 0 0 0 0 0 0 0 0 0 0 0 0 0 0 0 0 0 0 0 -0 -0 -0 0 0
Wind_Speed_500mb
106 105 104 97 93 81 79 75 77 61 63 55 51 50 51 43 43 42 46 49 54 54 52 52 53 50 46 47 46 44 48 53 60 63 63 63 64 66
103 107 106 98 94 83 78 74 70 66 50 56 56 52 51 45 43 45 46 49 53 48 51 50 50 48 47 47 48 48 54 60 64 67 67 66 64 65
100 104 101 97 91 86 81 73 62 61 53 47 48 46 44 49 47 47 46 48 46 47 50 49 49 44 46 47 48 51 58 65 66 66 65 63 63 67
102 101 101 96 94 93 88 72 55 67 64 58 48 52 52 49 49 46 44 44 45 44 44 47 42 42 44 48 44 50 55 58 62 65 67 67 65 65
96 98 101 102 97 99 99 75 67 68 68 61 63 59 56 50 45 41 40 43 42 38 40 36 39 38 44 43 42 48 52 56 61 62 64 65 67 69
97 100 103 100 103 100 97 81 74 70 67 62 59 57 50 43 37 37 40 38 34 32 33 25 36 36 36 39 42 48 54 59 64 65 67 72 74 75
100 103 103 107 92 93 88 80 74 68 65 60 55 51 44 34 33 37 35 32 32 28 28 29 31 32 34 40 44 46 55 60 65 68 70 74 77 76
97 102 106 94 83 82 81 72 66 65 64 57 52 46 37 31 33 34 30 27 27 25 32 24 26 26 35 40 42 45 53 61 64 65 68 74 74 71
79 87 98 98 88 78 77 68 62 56 48 42 42 40 35 26 29 27 27 24 23 27 28 30 25 30 33 31 34 43 53 59 64 65 66 70 70 64
78 77 88 97 85 82 75 71 68 59 55 47 43 33 27 27 24 25 22 19 19 19 25 21 30 33 30 21 39 44 51 58 61 64 67 68 62 54
78 99 84 96 78 83 77 79 70 63 55 45 32 30 26 23 23 23 16 15 13 17 17 26 29 34 23 16 43 43 52 54 58 63 66 63 53 43
90 88 85 81 83 80 78 76 74 62 50 39 33 29 24 23 20 15 10 10 12 11 16 24 27 34 20 21 46 53 58 56 60 62 61 59 58 48
78 77 76 77 72 73 67 60 46 42 41 34 33 29 21 17 13 8 8 6 5 9 16 21 23 29 26 42 46 54 52 57 61 56 52 51 53 43
75 76 76 76 71 66 58 52 42 31 28 33 28 21 14 18 12 9 4 2 5 9 14 21 23 22 27 36 41 48 38 52 54 52 46 35 27 13
64 75 74 67 62 52 43 49 46 36 37 35 24 23 26 19 15 9 6 6 6 12 14 18 25 16 20 29 35 43 48 42 44 41 38 32 26 11
59 65 62 51 46 53 57 44 38 37 33 28 24 30 29 23 18 15 11 10 5 11 15 16 15 20 28 31 30 33 38 33 36 39 42 39 40 35
62 61 59 66 72 64 52 51 47 39 33 30 35 34 29 25 24 22 15 15 9 9 11 11 12 17 24 29 27 30 29 32 38 53 63 71 72 68
73 82 84 80 66 61 65 53 44 43 38 39 37 34 34 29 25 26 22 16 10 11 12 8 6 9 12 19 26 25 24 35 43 50 56 62 66 62
78 78 68 58 63 75 60 51 46 40 39 42 41 37 33 28 31 26 25 19 9 3 16 16 10 6 7 20 26 24 23 31 34 38 43 47 53 52
72 73 70 72 75 65 52 47 48 52 50 46 44 42 36 33 32 30 24 15 7 21 25 23 14 7 3 13 27 25 16 21 26 34 40 41 46 43
75 75 77 81 70 57 55 53 51 52 50 48 45 41 41 37 36 33 27 17 24 26 27 29 30 24 24 28 38 35 30 27 23 24 27 30 35 37
80 84 86 73 64 61 59 54 52 50 51 49 48 48 43 37 36 31 25 32 34 28 27 20 17 20 23 26 38 35 32 27 22 18 14 11 13 34
87 85 73 65 63 60 54 54 56 56 54 55 51 46 43 40 34 28 32 37 33 26 23 30 28 27 31 31 33 34 30 31 34 41 47 40 44 47
Wind_Direction_500mb
244 245 246 248 248 241 239 239 235 225 227 220 226 234 247 256 266 281 296 304 308 312 311 313 315 316 321 327 325 328 326 325 328 329 327 324 322 319
247 244 244 248 249 245 242 239 238 235 228 222 224 237 240 251 265 279 294 301 305 312 309 312 310 311 317 320 320 324 323 325 329 330 330 328 325 323
250 246 246 245 243 241 238 238 242 237 230 227 224 225 228 245 261 281 290 299 305 306 304 302 304 302 311 315 317 321 325 329 330 330 329 327 325 325
246 245 245 242 241 238 237 240 252 247 232 221 214 214 227 246 263 274 289 296 300 298 296 299 302 300 308 310 321 324 324 327 330 331 331 329 324 323
249 249 246 244 241 234 237 235 235 232 231 229 225 227 234 247 261 275 285 296 296 295 296 300 299 304 304 310 318 315 316 323 328 328 328 324 321 319
249 247 247 246 242 235 236 231 226 222 226 225 226 229 237 247 261 278 291 295 293 298 296 301 299 302 302 309 312 312 317 320 324 324 324 323 320 318
251 249 247 243 247 243 232 228 220 218 221 224 224 227 236 252 269 283 292 291 296 301 300 317 301 307 309 312 313 313 316 321 324 326 325 322 321 319
250 246 241 234 244 238 233 225 225 223 219 220 222 230 235 249 271 287 288 291 301 304 308 320 312 315 315 315 316 318 322 325 325 327 326 322 322 319
252 249 247 240 242 232 227 218 217 217 225 228 227 229 239 255 274 279 280 293 305 307 311 324 322 330 326 324 327 334 331 331 330 329 326 325 325 316
263 250 253 243 231 234 217 209 211 212 212 216 222 232 243 263 268 269 276 292 304 309 318 327 330 339 339 341 342 341 342 338 334 331 330 331 330 322
255 246 249 232 232 220 210 207 207 203 207 214 219 229 247 254 259 263 272 288 299 317 331 343 338 340 342 351 347 347 345 343 341 339 340 342 346 338
242 230 230 226 217 210 207 206 201 200 207 205 216 227 232 243 248 251 270 298 312 330 339 344 348 360 346 348 356 353 350 355 353 348 347 352 3 0
237 227 224 212 208 201 200 202 209 200 192 203 206 212 208 219 226 236 254 286 338 9 358 358 1 8 7 349 358 3 356 0 360 357 355 358 360 1
241 228 214 200 198 195 196 188 188 197 206 201 193 188 213 217 196 202 202 79 38 31 22 14 17 16 6 1 3 9 5 8 7 5 2 2 356 38
235 217 199 191 184 177 189 199 186 192 199 180 185 204 203 176 173 168 141 98 36 28 45 43 33 27 17 14 13 10 15 15 15 18 22 32 43 47
225 195 188 180 181 188 191 188 187 173 184 195 200 194 166 160 154 149 157 149 114 56 37 40 47 32 28 25 20 28 30 43 38 47 55 64 77 86
201 187 185 190 191 182 179 183 173 183 189 191 187 167 151 150 152 158 163 163 151 94 79 56 36 22 25 25 37 43 52 67 76 81 79 76 71 73
196 191 187 186 183 177 174 171 182 184 180 184 169 159 162 166 167 165 164 144 111 111 113 100 33 9 9 29 55 55 79 94 94 90 88 84 80 70
204 195 192 187 175 175 172 183 176 175 181 170 160 159 165 162 148 144 135 130 112 96 112 99 97 96 77 88 75 74 102 105 101 95 91 86 83 76
203 196 186 181 179 176 180 177 173 177 170 165 160 162 166 153 152 140 147 150 133 100 86 84 102 97 56 130 109 97 101 107 104 99 96 95 95 96
194 189 182 182 183 184 177 170 178 169 165 166 164 157 154 154 143 143 147 152 124 106 96 89 80 87 104 115 110 103 92 86 82 90 101 104 102 97
189 186 185 184 186 178 171 169 166 170 168 163 159 155 153 150 145 147 155 133 118 109 105 113 80 97 123 119 109 108 103 102 104 101 100 99 102 112
188 185 181 179 178 171 165 170 169 172 168 159 155 150 151 145 147 154 137 124 121 117 124 125 119 124 117 110 110 112 110 104 103 100 94 97 102 100
Wind_Speed_850mb
106 105 104 97 93 81 79 75 77 61 63 55 51 50 51 43 43 42 46 49 54 54 52 52 53 50 46 47 46 44 48 53 60 63 63 63 64 66
103 107 106 98 94 83 78 74 70 66 50 56 56 52 51 45 43 45 46 49 53 48 51 50 50 48 47 47 48 48 54 60 64 67 67 66 64 65
100 104 101 97 91 86 81 73 62 61 53 47 48 46 44 49 47 47 46 48 46 47 50 49 49 44 46 47 48 51 58 65 66 66 65 63 63 67
102 101 101 96 94 93 88 72 55 67 64 58 48 52 52 49 49 46 44 44 45 44 44 47 42 42 44 48 44 50 55 58 62 65 67 67 65 65
96 98 101 102 97 99 99 75 67 68 68 61 63 59 56 50 45 41 40 43 42 38 40 36 39 38 44 43 42 48 52 56 61 62 64 65 67 69
97 100 103 100 103 100 97 81 74 70 67 62 59 57 50 43 37 37 40 38 34 32 33 25 36 36 36 39 42 48 54 59 64 65 67 72 74 75
100 103 103 107 92 93 88 80 74 68 65 60 55 51 44 34 33 37 35 32 32 28 28 29 31 32 34 40 44 46 55 60 65 68 70 74 77 76
97 102 106 94 83 82 81 72 66 65 64 57 52 46 37 31 33 34 30 27 27 25 32 24 26 26 35 40 42 45 53 61 64 65 68 74 74 71
79 87 98 98 88 78 77 68 62 56 48 42 42 40 35 26 29 27 27 24 23 27 28 30 25 30 33 31 34 43 53 59 64 65 66 70 70 64
78 77 88 97 85 82 75 71 68 59 55 47 43 33 27 27 24 25 22 19 19 19 25 21 30 33 30 21 39 44 51 58 61 64 67 68 62 54
78 99 84 96 78 83 77 79 70 63 55 45 32 30 26 23 23 23 16 15 13 17 17 26 29 34 23 16 43 43 52 54 58 63 66 63 53 43
90 88 85 81 83 80 78 76 74 62 50 39 33 29 24 23 20 15 10 10 12 11 16 24 27 34 20 21 46 53 58 56 60 62 61 59 58 48
78 77 76 77 72 73 67 60 46 42 41 34 33 29 21 17 13 8 8 6 5 9 16 21 23 29 26 42 46 54 52 57 61 56 52 51 53 43
75 76 76 76 71 66 58 52 42 31 28 33 28 21 14 18 12 9 4 2 5 9 14 21 23 22 27 36 41 48 38 52 54 52 46 35 27 13
64 75 74 67 62 52 43 49 46 36 37 35 24 23 26 19 15 9 6 6 6 12 14 18 25 16 20 29 35 43 48 42 44 41 38 32 26 11
59 65 62 51 46 53 57 44 38 37 33 28 24 30 29 23 18 15 11 10 5 11 15 16 15 20 28 31 30 33 38 33 36 39 42 39 40 35
62 61 59 66 72 64 52 51 47 39 33 30 35 34 29 25 24 22 15 15 9 9 11 11 12 17 24 29 27 30 29 32 38 53 63 71 72 68
73 82 84 80 66 61 65 53 44 43 38 39 37 34 34 29 25 26 22 16 10 11 12 8 6 9 12 19 26 25 24 35 43 50 56 62 66 62
78 78 68 58 63 75 60 51 46 40 39 42 41 37 33 28 31 26 25 19 9 3 16 16 10 6 7 20 26 24 23 31 34 38 43 47 53 52
72 73 70 72 75 65 52 47 48 52 50 46 44 42 36 33 32 30 24 15 7 21 25 23 14 7 3 13 27 25 16 21 26 34 40 41 46 43
75 75 77 81 70 57 55 53 51 52 50 48 45 41 41 37 36 33 27 17 24 26 27 29 30 24 24 28 38 35 30 27 23 24 27 30 35 37
80 84 86 73 64 61 59 54 52 50 51 49 48 48 43 37 36 31 25 32 34 28 27 20 17 20 23 26 38 35 32 27 22 18 14 11 13 34
87 85 73 65 63 60 54 54 56 56 54 55 51 46 43 40 34 28 32 37 33 26 23 30 28 27 31 31 33 34 30 31 34 41 47 40 44 47
Wind_Direction_850mb
244 245 246 248 248 241 239 239 235 225 227 220 226 234 247 256 266 281 296 304 308 312 311 313 315 316 321 327 325 328 326 325 328 329 327 324 322 319
247 244 244 248 249 245 242 239 238 235 228 222 224 237 240 251 265 279 294 301 305 312 309 312 310 311 317 320 320 324 323 325 329 330 330 328 325 323
250 246 246 245 243 241 238 238 242 237 230 227 224 225 228 245 261 281 290 299 305 306 304 302 304 302 311 315 317 321 325 329 330 330 329 327 325 325
246 245 245 242 241 238 237 240 252 247 232 221 214 214 227 246 263 274 289 296 300 298 296 299 302 300 308 310 321 324 324 327 330 331 331 329 324 323
249 249 246 244 241 234 237 235 235 232 231 229 225 227 234 247 261 275 285 296 296 295 296 300 299 304 304 310 318 315 316 323 328 328 328 324 321 319
249 247 247 246 242 235 236 231 226 222 226 225 226 229 237 247 261 278 291 295 293 298 296 301 299 302 302 309 312 312 317 320 324 324 324 323 320 318
251 249 247 243 247 243 232 228 220 218 221 224 224 227 236 252 269 283 292 291 296 301 300 317 301 307 309 312 313 313 316 321 324 326 325 322 321 319
250 246 241 234 244 238 233 225 225 223 219 220 222 230 235 249 271 287 288 291 301 304 308 320 312 315 315 315 316 318 322 325 325 327 326 322 322 319
252 249 247 240 242 232 227 218 217 217 225 228 227 229 239 255 274 279 280 293 305 307 311 324 322 330 326 324 327 334 331 331 330 329 326 325 325 316
263 250 253 243 231 234 217 209 211 212 212 216 222 232 243 263 268 269 276 292 304 309 318 327 330 339 339 341 342 341 342 338 334 331 330 331 330 322
255 246 249 232 232 220 210 207 207 203 207 214 219 229 247 254 259 263 272 288 299 317 331 343 338 340 342 351 347 347 345 343 341 339 340 342 346 338
242 230 230 226 217 210 207 206 201 200 207 205 216 227 232 243 248 251 270 298 312 330 339 344 348 360 346 348 356 353 350 355 353 348 347 352 3 0
237 227 224 212 208 201 200 202 209 200 192 203 206 212 208 219 226 236 254 286 338 9 358 358 1 8 7 349 358 3 356 0 360 357 355 358 360 1
241 228 214 200 198 195 196 188 188 197 206 201 193 188 213 217 196 202 202 79 38 31 22 14 17 16 6 1 3 9 5 8 7 5 2 2 356 38
235 217 199 191 184 177 189 199 186 192 199 180 185 204 203 176 173 168 141 98 36 28 45 43 33 27 17 14 13 10 15 15 15 18 22 32 43 47
225 195 188 180 181 188 191 188 187 173 184 195 200 194 166 160 154 149 157 149 114 56 37 40 47 32 28 25 20 28 30 43 38 47 55 64 77 86
201 187 185 190 191 182 179 183 173 183 189 191 187 167 151 150 152 158 163 163 151 94 79 56 36 22 25 25 37 43 52 67 76 81 79 76 71 73
196 191 187 186 183 177 174 171 182 184 180 184 169 159 162 166 167 165 164 144 111 111 113 100 33 9 9 29 55 55 79 94 94 90 88 84 80 70
204 195 192 187 175 175 172 183 176 175 181 170 160 159 165 162 148 144 135 130 112 96 112 99 97 96 77 88 75 74 102 105 101 95 91 86 83 76
203 196 186 181 179 176 180 177 173 177 170 165 160 162 166 153 152 140 147 150 133 100 86 84 102 97 56 130 109 97 101 107 104 99 96 95 95 96
194 189 182 182 183 184 177 170 178 169 165 166 164 157 154 154 143 143 147 152 124 106 96 89 80 87 104 115 110 103 92 86 82 90 101 104 102 97
189 186 185 184 186 178 171 169 166 170 168 163 159 155 153 150 145 147 155 133 118 109 105 113 80 97 123 119 109 108 103 102 104 101 100 99 102 112
188 185 181 179 178 171 165 170 169 172 168 159 155 150 151 145 147 154 137 124 121 117 124 125 119 124 117 110 110 112 110 104 103 100 94 97 102 100